Погода в Исити

Погода в Исити : погода сейчас, прогноз погоды и архив. Всё, что Вы хотите узнать о погоде в Исити!

Хотите узнать прогноз погоды в Исити? Тогда Вам сюда: Погода в Исити

Поиск расширенной информации на нашем сайте:

Другие новости

Новости СМИ2

Главная страница сайта

Новости сайта

03.07.2017

Напоминаем, что на нашем специализированном сайте Метеоцентр.Азия вы можете получить высокодетализированные автоматические прогнозы погоды по пунктам России, СНГ и мира в авиационном формате (включающие направление и скорость ветра, видимость, явления погоды, количество и форму облачности, нижнюю и верхнюю границу облачности).


Погода в Исити - сегодня

Время (UTC), дата Ветер
(°,м/с) 
Видим.   Явления Облачность Т
(°С)
Тd
(°С)
f(%) Тe
(°С)
Pmin
(гПа)
dP
(гПа)
Po
(мм)
O2
(г/м3)
Тmin Tmax R s Состояние
почвы
09 16.10.18 тихо ()   20000 м    1/0 средняя 
[Ac lent]
-1.2 -3.5 84 -1  1022.2  -1.5  754  306           
12 16.10.18 тихо ()   20000 м    ясно 
-4.2 -6.5 84 -4  1021.5  -0.9  754  309    +0.4       
15 16.10.18 тихо ()   20000 м    ясно 
-4.9 -7.3 83 -5  1021.5  754  310           
18 16.10.18 280 (З) 20000 м    ясно 
-5.5 -8.1 82 -7  1021.8  0.2  754  311           
21 16.10.18 280 (З) 20000 м    ясно 
-2 -5.5 77 -3  1023.1  1.5  755  307           
03 17.10.18 240 (ЮЗ) 20000 м    9/4 1000 м средняя 
[Sc|Ac trans]
+0.2 -2.7 81 +1  1023  755  304           
06 17.10.18 230 (ЮЗ) 20000 м    10/0 средняя 
[Ac As]
+1.6 -3.9 67 +2  1021.8  -1  754  303           
09 17.10.18 тихо ()   20000 м    10/0 средняя 
[Ac As]
+0.6 -4.4 69 +1  1021.1  -0.8  753  303           
15 17.10.18 270 (З) 20000 м  {снег}  10/0 средняя 
[Ac As]
-1.8 -2.6 94 -1  1020.8  -0.6  753  306           
18 17.10.18 280 (З) 20000 м  {снег}  10/0 средняя 
[As op]
-1 -2.9 87 1020.9  0.2  753  305           
21 17.10.18 290 (З) 20000 м    9/0 средняя 
[Ac As]
-2.3 -3.8 89 -2  1021.5  0.5  754  307           
03 18.10.18 240 (ЮЗ) 20000 м    4/1 1000 м средняя, верхняя 
[Cu hum|Ac trans|Ci fib]
+1 -5.4 62 +2  1021.8  0.2  754  303           
06 18.10.18 260 (З) 20000 м  слаб. снег  10/6 1000 м средняя 
[Sc|As op]
+0.7 -5.8 62 -1  1021.3  -0.6  754  304           
09 18.10.18 280 (З) 20000 м  {снег}  10/4 1000 м средняя 
[Sc|Ac As]
+0.2 -5.7 64 +1  1012.3  754  304           
15 18.10.18 220 (ЮЗ) 20000 м    10/0 средняя 
[Ac As]
-0.1 -7.4 58 -1  1021.3  -0.4  754  305           
18 18.10.18 270 (З) 20000 м    10/0 средняя, верхняя 
[Ac As|Cs]
-2 -7.4 66 -3  1020.4  -1.1  753  306           
21 18.10.18 280 (З) 20000 м  слаб. снег  10/0 средняя 
[As op]
-1.5 -5.6 74 -2  1018.6  -1.7  752  305           
03 19.10.18 190 (Ю) 20000 м    10/4 1000 м средняя 
[Sc|As op]
+0.3 -2.4 82 +1  1015.9  -0.9  750  302           
06 19.10.18 180 (Ю) 10 км  слаб. снег  10/0 средняя 
[As op]
+0.4 -0.7 92 +1  1014  -1.9  748  301           
09 19.10.18 тихо ()   10 км  слаб. снег  10/0 средняя 
[As op]
+0.2 -0.3 96 1013.7  -0.3  748  301           
15 19.10.18 280 (З) 20000 м    10/6 1000 м средняя 
[Sc|Ac As]
-0.2 -1.4 92 1018.2  2.4  751  303           
18 19.10.18 280 (З) 20000 м    10/3 1000 м средняя, верхняя 
[Sc|Ac As|Cs]
-1.1 -2.7 89 -1  1019.6  1.2  752  305           
21 19.10.18 270 (З) 10 км  слаб. снег  10/0 средняя 
[As op]
-1 -2.3 91 -2  1020.5  0.9  753  305           
03 20.10.18 250 (З) 20000 м  в посл. час крупа{снег}  10/8 600 м кучево-дожд., средняя 
[Cb calv|Ac As]
-0.8 -3.3 83 -2  1022.4  0.5  754  305           
06 20.10.18 270 (З) 20000 м  {ливн. осадки, снег}  10/5 600 м кучево-дожд., средняя 
[Cb calv|Ac As]
-0.1 -3.1 80 -1  1022.5  0.2  755  304           
Время (UTC), дата Ветер
(°,м/с) 
Видим.   Явления Облачность Т
(°С)
Тd
(°С)
f(%) Тe
(°С)
Pmin
(гПа)
dP
(гПа)
Po
(мм)
O2
(г/м3)
Тmin Tmax R s Состояние
почвы

Для получения пояснительной информации подведите курсор к названию столбца.

ПОГОДА в Исити - архив

Всё, что Вы хотите узнать о погоде в Исити - удобно и подробно!

Выберите нужную дату (начиная с 1 января 2015* года) и нажмите кнопку "Найти".
Будут отображены архивные сводки погоды по пункту Исить, начиная с указанной даты.


Отображать данные в формате CSV (для использования в таблицах Excel)


Внимание! Наш архив погоды предназначен исключительно для личного некоммерческого использования в познавательных целях. Если Вам необходимы официальные справки о состоянии погоды (для производственных, юридических, коммерческих и т.п. целей), обращайтесь в органы Росгидромета.

*Примечание: данная дата относится к архиву по метеостанциям СССР (Россия, СНГ, Балтия).
Архив по метеостанциям Зарубежной Европы и Азии (кроме Китая) хранится 10 дней, по другим регионам земного шара (Китай, Африка, Америка, Австралия, Океания) - 1 день.

Исить - район местоположения метеостанции


Название, широта, долгота, высота метеостанции:
Исить 60.8°ш. 125.3°д. 118 м над ур. моря [Российская Федерация]

Дополнительная информация

В oтличие oт бoльшинства пoгoдных сайтoв мы публикуем пoдрoбную метеoинфoрмацию в детальнoм прoфессиoнальнoм фoрмате.

Характеристики температуры и влажнoсти вoздуха измеряются на высoте 2 м в тени вдали oт зданий и деревьев.
Скoрoсть ветра измеряется на высoте 10 м (на урoвне рoста челoвека скoрoсть ветра ниже в 1.5-2 раза). Если метеoстанция нахoдится в гoрoде или в лесу, тo скoрoсть ветра занижена на 2-4 м/с пo сравнению с oткрытым местoм. Скoрoсть ветра над акватoриями крупных рек и oзёр, а также на вершинах хoлмoв на 2-5 м/с выше, чем в oбычных услoвиях.
Атмoсфернoе давление в разных тoчках местнoсти мoжет значительнo oтличаться oт давления на метеoстанции, в зависимoсти oт услoвий рельефа (при пoдъёме на 10 м давление пoнижается примернo на 1 мм рт.ст.).